VIR133V EGLL-TAPA

Flight info

Callsign VIR133V
Flight time N/A
Altitude 36000
Route CPT DCT DIDZA L9 OKSAW DCT BIBPE DCT BUCGO DCT FELCA DCT OFSOX DCT BANBA DCT DINIM/M082F380 DCT 51N020W 49N030W 43N040W 39N045W/M082F400 34N050W 28N055W 2139N05934W 20N060W DCT AMTTO DCT ANU
Aircraft A339/H-SADE1E2E3GHIJ3J5M1P2RWXY/LB2D1

Departure

Time N/A
Airport London Heathrow Airport (EGLL)

Arrival

Time 2026-05-04 16:22
Airport V. C. Bird International Airport (TAPA)
Time Latitude Longitude Altitude Speed Heading
2026-05-04 10:04 50.75935 -21.52957 38141 ft 462 kts 256°
2026-05-04 10:05 50.74326 -21.62698 38149 ft 462 kts 256°
2026-05-04 10:05 50.72696 -21.72504 38129 ft 462 kts 256°
2026-05-04 10:06 50.71056 -21.82293 38131 ft 462 kts 256°
2026-05-04 10:06 50.69413 -21.92075 38139 ft 461 kts 256°
2026-05-04 10:08 50.63605 -22.26217 38134 ft 460 kts 256°
2026-05-04 10:08 50.61931 -22.35953 38156 ft 460 kts 256°
2026-05-04 10:09 50.60251 -22.45685 38161 ft 460 kts 256°
2026-05-04 10:09 50.58560 -22.55405 38161 ft 461 kts 255°
2026-05-04 10:10 50.56857 -22.65118 38171 ft 461 kts 256°
2026-05-04 10:10 50.55145 -22.74834 38167 ft 461 kts 256°
2026-05-04 10:11 50.53424 -22.84533 38173 ft 461 kts 255°
2026-05-04 10:11 50.51698 -22.94225 38175 ft 460 kts 255°
2026-05-04 10:12 50.49975 -23.03844 38174 ft 460 kts 255°
2026-05-04 10:12 50.48234 -23.13509 38170 ft 460 kts 255°
2026-05-04 10:13 50.46492 -23.23158 38166 ft 459 kts 255°
2026-05-04 10:13 50.44740 -23.32801 38167 ft 459 kts 255°
2026-05-04 10:14 50.42977 -23.42437 38169 ft 460 kts 255°
2026-05-04 10:16 50.35827 -23.80958 38166 ft 460 kts 255°
2026-05-04 10:16 50.34025 -23.90576 38166 ft 461 kts 255°
2026-05-04 10:17 50.32226 -24.00130 38167 ft 461 kts 255°
2026-05-04 10:19 50.24903 -24.38479 38161 ft 460 kts 254°
2026-05-04 10:19 50.23048 -24.48056 38173 ft 460 kts 254°
2026-05-04 10:20 50.21189 -24.57606 38170 ft 460 kts 254°
2026-05-04 10:20 50.19325 -24.67156 38174 ft 460 kts 254°
2026-05-04 10:21 50.17766 -24.75099 38177 ft 460 kts 253°
2026-05-04 10:21 50.15885 -24.84636 38171 ft 460 kts 253°
2026-05-04 10:22 50.13051 -24.98910 38192 ft 459 kts 253°
2026-05-04 10:23 50.11155 -25.08414 38201 ft 460 kts 253°
2026-05-04 10:25 50.03488 -25.46305 38236 ft 459 kts 253°
2026-05-04 10:25 50.01559 -25.55759 38252 ft 459 kts 253°
2026-05-04 10:26 49.99628 -25.65148 38255 ft 459 kts 253°
2026-05-04 10:26 49.97680 -25.74599 38258 ft 459 kts 253°
2026-05-04 10:27 49.95720 -25.84043 38267 ft 459 kts 253°
2026-05-04 10:27 49.93750 -25.93489 38267 ft 460 kts 253°
2026-05-04 10:28 49.91775 -26.02929 38269 ft 460 kts 253°
2026-05-04 10:28 49.89786 -26.12358 38275 ft 460 kts 252°
2026-05-04 10:29 49.87791 -26.21790 38270 ft 460 kts 252°
2026-05-04 10:29 49.85790 -26.31192 38265 ft 459 kts 252°
2026-05-04 10:30 49.83789 -26.40588 38265 ft 459 kts 252°
2026-05-04 10:30 49.81781 -26.49974 38267 ft 459 kts 252°
2026-05-04 10:31 49.79760 -26.59360 38270 ft 460 kts 252°
2026-05-04 10:32 49.72625 -26.92135 38272 ft 459 kts 252°
2026-05-04 10:33 49.70580 -27.01415 38272 ft 459 kts 252°
2026-05-04 10:33 49.68525 -27.10744 38269 ft 459 kts 252°
2026-05-04 10:34 49.66464 -27.20063 38278 ft 458 kts 252°
2026-05-04 10:34 49.64381 -27.29351 38290 ft 458 kts 252°
2026-05-04 10:35 49.62302 -27.38643 38298 ft 458 kts 252°
2026-05-04 10:35 49.60223 -27.47927 38296 ft 458 kts 252°
2026-05-04 10:36 49.58136 -27.57194 38295 ft 458 kts 252°
2026-05-04 10:36 49.56037 -27.66453 38295 ft 458 kts 252°
2026-05-04 10:37 49.53930 -27.75711 38295 ft 458 kts 252°
2026-05-04 10:37 49.51814 -27.84954 38298 ft 458 kts 251°
2026-05-04 10:39 49.44366 -28.17210 38303 ft 457 kts 251°
2026-05-04 10:40 49.42219 -28.26402 38302 ft 457 kts 251°
2026-05-04 10:40 49.40069 -28.35588 38301 ft 457 kts 251°
2026-05-04 10:41 49.37916 -28.44763 38301 ft 457 kts 251°
2026-05-04 10:41 49.35751 -28.53927 38303 ft 457 kts 251°
2026-05-04 10:42 49.33577 -28.63091 38304 ft 457 kts 251°
2026-05-04 10:42 49.31408 -28.72195 38303 ft 457 kts 251°
2026-05-04 10:43 49.29217 -28.81343 38305 ft 457 kts 251°
2026-05-04 10:45 49.20399 -29.17843 38306 ft 457 kts 250°
2026-05-04 10:45 49.18180 -29.26942 38305 ft 457 kts 251°
2026-05-04 10:46 49.15948 -29.36034 38305 ft 457 kts 250°
2026-05-04 10:46 49.13707 -29.45118 38305 ft 457 kts 251°
2026-05-04 10:47 49.11466 -29.54195 38303 ft 457 kts 250°
2026-05-04 10:47 49.09216 -29.63260 38306 ft 457 kts 250°
2026-05-04 10:49 48.99781 -29.99104 38296 ft 458 kts 243°
2026-05-04 10:50 48.96383 -30.07311 38295 ft 458 kts 234°
2026-05-04 10:52 48.80890 -30.38133 38295 ft 459 kts 234°
2026-05-04 10:52 48.77010 -30.45825 38294 ft 459 kts 234°
2026-05-04 10:54 48.61468 -30.76477 38302 ft 459 kts 233°
2026-05-04 10:56 48.45820 -31.06904 38307 ft 459 kts 233°
2026-05-04 10:57 48.41899 -31.14481 38303 ft 459 kts 233°
2026-05-04 10:57 48.37973 -31.22064 38282 ft 459 kts 233°
2026-05-04 10:58 48.34047 -31.29618 38273 ft 459 kts 233°
2026-05-04 10:58 48.30104 -31.37155 38257 ft 459 kts 233°
2026-05-04 10:59 48.26163 -31.44688 38243 ft 458 kts 233°
2026-05-04 10:59 48.22216 -31.52209 38225 ft 459 kts 233°
2026-05-04 11:00 48.18264 -31.59711 38218 ft 458 kts 233°
2026-05-04 11:02 48.02454 -31.89563 38214 ft 458 kts 232°
2026-05-04 11:05 47.72525 -32.45166 38227 ft 459 kts 232°
2026-05-04 11:06 47.68519 -32.52515 38225 ft 458 kts 232°
2026-05-04 11:06 47.64495 -32.59860 38227 ft 458 kts 232°
2026-05-04 11:10 47.36240 -33.11032 38231 ft 460 kts 232°
2026-05-04 11:12 47.20637 -33.38900 38232 ft 460 kts 232°
2026-05-04 11:12 47.16552 -33.46150 38224 ft 460 kts 231°
2026-05-04 11:13 47.12452 -33.53382 38229 ft 460 kts 231°
2026-05-04 11:13 47.08364 -33.60610 38226 ft 460 kts 231°
2026-05-04 11:14 47.04266 -33.67829 38230 ft 460 kts 231°
2026-05-04 11:16 46.87812 -33.96586 38286 ft 460 kts 231°
2026-05-04 11:16 46.83684 -34.03737 38297 ft 461 kts 231°
2026-05-04 11:17 46.79545 -34.10891 38298 ft 462 kts 231°
2026-05-04 11:19 46.62940 -34.39501 38303 ft 462 kts 231°
2026-05-04 11:19 46.58765 -34.46623 38308 ft 462 kts 231°
2026-05-04 11:20 46.54595 -34.53731 38311 ft 462 kts 231°
2026-05-04 11:20 46.50422 -34.60849 38300 ft 462 kts 231°
2026-05-04 11:22 46.33665 -34.89163 38241 ft 464 kts 231°
2026-05-04 11:23 46.29459 -34.96238 38211 ft 464 kts 231°
2026-05-04 11:25 46.14662 -35.20912 38151 ft 464 kts 231°
2026-05-04 11:25 46.10432 -35.27947 38158 ft 464 kts 231°
2026-05-04 11:27 45.91311 -35.59450 38154 ft 466 kts 231°
2026-05-04 11:28 45.87041 -35.66446 38149 ft 466 kts 231°
2026-05-04 11:28 45.82765 -35.73428 38155 ft 466 kts 231°
2026-05-04 11:29 45.78484 -35.80403 38157 ft 466 kts 231°
2026-05-04 11:29 45.74192 -35.87362 38147 ft 466 kts 231°
2026-05-04 11:33 45.44041 -36.35851 38156 ft 467 kts 231°
2026-05-04 11:33 45.39701 -36.42758 38154 ft 468 kts 231°
2026-05-04 11:34 45.35356 -36.49655 38139 ft 468 kts 231°
2026-05-04 11:34 45.31003 -36.56556 38154 ft 469 kts 231°
2026-05-04 11:35 45.26678 -36.63398 38133 ft 469 kts 231°
2026-05-04 11:35 45.22314 -36.70282 38133 ft 469 kts 231°
2026-05-04 11:36 45.17940 -36.77159 38153 ft 470 kts 231°
2026-05-04 11:36 45.13553 -36.84034 38151 ft 470 kts 231°
2026-05-04 11:37 45.09160 -36.90897 38148 ft 471 kts 231°
2026-05-04 11:37 45.04764 -36.97767 38134 ft 471 kts 231°
2026-05-04 11:38 45.00359 -37.04632 38133 ft 472 kts 231°
2026-05-04 11:38 44.95949 -37.11489 38153 ft 471 kts 231°
2026-05-04 11:39 44.91527 -37.18328 38154 ft 471 kts 231°
2026-05-04 11:41 44.76019 -37.42212 38154 ft 472 kts 231°
2026-05-04 11:41 44.71580 -37.49025 38150 ft 472 kts 231°
2026-05-04 11:42 44.67155 -37.55783 38156 ft 473 kts 231°
2026-05-04 11:42 44.62698 -37.62577 38140 ft 473 kts 231°
2026-05-04 11:43 44.58231 -37.69371 38154 ft 473 kts 231°
2026-05-04 11:43 44.53763 -37.76155 38150 ft 474 kts 231°
2026-05-04 11:44 44.49282 -37.82937 38128 ft 475 kts 231°
2026-05-04 11:44 44.44795 -37.89717 38131 ft 475 kts 231°
2026-05-04 11:45 44.40300 -37.96484 38147 ft 474 kts 231°
2026-05-04 11:45 44.35798 -38.03236 38150 ft 475 kts 231°
2026-05-04 11:46 44.31295 -38.09998 38129 ft 475 kts 232°
2026-05-04 11:46 44.26779 -38.16740 38131 ft 476 kts 231°
2026-05-04 11:47 44.22259 -38.23486 38133 ft 476 kts 231°
2026-05-04 11:47 44.17740 -38.30223 38145 ft 476 kts 231°
2026-05-04 11:48 44.13211 -38.36941 38141 ft 475 kts 231°
2026-05-04 11:48 44.08716 -38.43602 38129 ft 475 kts 231°
2026-05-04 11:49 44.04191 -38.50295 38122 ft 475 kts 231°
2026-05-04 11:49 43.99623 -38.57007 38128 ft 475 kts 231°
2026-05-04 11:50 43.95114 -38.63633 38138 ft 475 kts 231°
2026-05-04 11:50 43.90576 -38.70297 38124 ft 475 kts 231°
2026-05-04 11:51 43.86035 -38.76940 38119 ft 474 kts 231°
2026-05-04 11:51 43.81522 -38.83553 38117 ft 474 kts 231°
2026-05-04 11:52 43.76980 -38.90161 38117 ft 474 kts 231°
2026-05-04 11:52 43.72437 -38.96759 38120 ft 474 kts 231°
2026-05-04 11:53 43.67891 -39.03351 38122 ft 474 kts 231°
2026-05-04 11:53 43.63345 -39.09927 38120 ft 473 kts 230°
2026-05-04 11:55 43.45142 -39.36114 38112 ft 472 kts 230°
2026-05-04 11:56 43.40584 -39.42625 38108 ft 472 kts 230°
2026-05-04 11:56 43.36027 -39.49127 38111 ft 472 kts 230°
2026-05-04 11:57 43.31476 -39.55613 38109 ft 471 kts 230°
2026-05-04 11:57 43.26910 -39.62093 38098 ft 472 kts 230°
2026-05-04 11:58 43.22372 -39.68516 38093 ft 472 kts 230°
2026-05-04 11:58 43.17815 -39.74982 38092 ft 472 kts 230°
2026-05-04 11:59 43.13244 -39.81433 38100 ft 472 kts 230°
2026-05-04 11:59 43.08670 -39.87869 38100 ft 472 kts 230°
2026-05-04 12:00 43.04834 -39.93265 38096 ft 472 kts 230°
2026-05-04 12:00 42.99497 -40.00728 38093 ft 473 kts 229°
2026-05-04 12:01 42.95550 -40.05979 38098 ft 472 kts 229°
2026-05-04 12:02 42.79373 -40.28046 38094 ft 471 kts 229°
2026-05-04 12:03 42.74714 -40.34327 38090 ft 471 kts 229°
2026-05-04 12:03 42.70068 -40.40615 38081 ft 471 kts 229°
2026-05-04 12:04 42.65414 -40.46885 38077 ft 471 kts 229°
2026-05-04 12:04 42.60760 -40.53141 38081 ft 471 kts 229°
2026-05-04 12:05 42.56094 -40.59404 38081 ft 472 kts 229°
2026-05-04 12:05 42.51414 -40.65648 38079 ft 472 kts 229°
2026-05-04 12:06 42.46740 -40.71879 38082 ft 471 kts 229°
2026-05-04 12:06 42.42065 -40.78107 38083 ft 471 kts 229°
2026-05-04 12:07 42.37386 -40.84314 38072 ft 470 kts 229°
2026-05-04 12:07 42.32716 -40.90515 38071 ft 470 kts 229°
2026-05-04 12:08 42.28120 -40.96684 38074 ft 460 kts 229°
2026-05-04 12:08 42.23545 -41.02721 38072 ft 462 kts 227°
2026-05-04 12:09 42.18918 -41.08720 38072 ft 460 kts 228°
2026-05-04 12:09 42.14334 -41.14729 38064 ft 459 kts 228°
2026-05-04 12:10 42.09787 -41.20688 38063 ft 459 kts 228°
2026-05-04 12:10 42.05182 -41.26714 38064 ft 458 kts 228°
2026-05-04 12:11 42.00644 -41.32634 38061 ft 457 kts 228°
2026-05-04 12:11 41.96085 -41.38574 38053 ft 456 kts 228°
2026-05-04 12:12 41.91525 -41.44508 38051 ft 456 kts 227°
2026-05-04 12:12 41.86968 -41.50428 38049 ft 456 kts 227°
2026-05-04 12:14 41.68707 -41.73983 38050 ft 455 kts 227°
2026-05-04 12:15 41.64143 -41.79836 38049 ft 455 kts 227°
2026-05-04 12:15 41.59574 -41.85696 38050 ft 455 kts 227°
2026-05-04 12:16 41.55004 -41.91541 38037 ft 455 kts 227°
2026-05-04 12:16 41.50430 -41.97385 38038 ft 455 kts 227°
2026-05-04 12:17 41.45846 -42.03221 38045 ft 456 kts 227°
2026-05-04 12:17 41.41266 -42.09045 38049 ft 455 kts 227°
2026-05-04 12:18 41.36695 -42.14862 38036 ft 454 kts 227°
2026-05-04 12:18 41.32112 -42.20648 38035 ft 454 kts 227°
2026-05-04 12:19 41.27521 -42.26430 38033 ft 454 kts 227°
2026-05-04 12:19 41.22971 -42.32176 38026 ft 454 kts 227°
2026-05-04 12:20 41.18393 -42.37936 38026 ft 454 kts 227°
2026-05-04 12:20 41.13806 -42.43696 38035 ft 454 kts 227°
2026-05-04 12:21 41.09210 -42.49449 38034 ft 454 kts 227°
2026-05-04 12:21 41.04609 -42.55204 38028 ft 455 kts 227°
2026-05-04 12:22 41.00006 -42.60949 38031 ft 455 kts 227°
2026-05-04 12:22 40.95395 -42.66690 38034 ft 456 kts 226°
2026-05-04 12:23 40.90777 -42.72424 38029 ft 455 kts 226°
2026-05-04 12:23 40.86164 -42.78147 38030 ft 455 kts 226°
2026-05-04 12:24 40.81546 -42.83856 38028 ft 454 kts 226°
2026-05-04 12:24 40.76931 -42.89561 38026 ft 455 kts 226°
2026-05-04 12:25 40.72343 -42.95229 38031 ft 455 kts 226°
2026-05-04 12:25 40.67719 -43.00918 38016 ft 454 kts 226°
2026-05-04 12:26 40.63094 -43.06589 38020 ft 454 kts 226°
2026-05-04 12:26 40.58468 -43.12252 38019 ft 454 kts 226°
2026-05-04 12:27 40.53844 -43.17912 38016 ft 454 kts 226°
2026-05-04 12:27 40.49219 -43.23556 38017 ft 454 kts 226°
2026-05-04 12:28 40.44587 -43.29195 38017 ft 454 kts 226°
2026-05-04 12:28 40.39962 -43.34827 38018 ft 454 kts 226°
2026-05-04 12:29 40.35333 -43.40452 38019 ft 453 kts 226°
2026-05-04 12:29 40.30699 -43.46058 38010 ft 453 kts 225°
2026-05-04 12:30 40.26063 -43.51659 38011 ft 453 kts 226°
2026-05-04 12:30 40.21426 -43.57250 38011 ft 453 kts 225°
2026-05-04 12:31 40.16791 -43.62833 38008 ft 453 kts 225°
2026-05-04 12:31 40.12150 -43.68408 38006 ft 453 kts 226°
2026-05-04 12:32 40.05234 -43.76715 38027 ft 452 kts 225°
2026-05-04 12:33 40.00591 -43.82250 38040 ft 452 kts 225°
2026-05-04 12:33 39.95953 -43.87788 38059 ft 452 kts 225°
2026-05-04 12:34 39.91310 -43.93322 38062 ft 452 kts 225°
2026-05-04 12:34 39.86653 -43.98853 38064 ft 453 kts 225°
2026-05-04 12:35 39.81999 -44.04381 38064 ft 453 kts 225°
2026-05-04 12:35 39.77343 -44.09895 38062 ft 453 kts 225°
2026-05-04 12:36 39.72682 -44.15410 38067 ft 453 kts 225°
2026-05-04 12:36 39.68010 -44.20915 38071 ft 454 kts 225°
2026-05-04 12:37 39.63345 -44.26417 38066 ft 453 kts 225°
2026-05-04 12:37 39.58678 -44.31898 38057 ft 453 kts 225°
2026-05-04 12:38 39.54010 -44.37373 38051 ft 453 kts 225°
2026-05-04 12:38 39.49334 -44.42850 38040 ft 453 kts 225°
2026-05-04 12:39 39.44655 -44.48318 38043 ft 453 kts 225°
2026-05-04 12:39 39.39980 -44.53773 38037 ft 452 kts 225°
2026-05-04 12:40 39.35332 -44.59172 38032 ft 452 kts 225°
2026-05-04 12:40 39.30660 -44.64610 38027 ft 452 kts 225°
2026-05-04 12:41 39.25986 -44.70034 38028 ft 452 kts 225°
2026-05-04 12:41 39.21311 -44.75445 38016 ft 451 kts 225°
2026-05-04 12:42 39.16640 -44.80851 38015 ft 451 kts 225°
2026-05-04 12:42 39.11972 -44.86242 38012 ft 451 kts 225°
2026-05-04 12:43 39.07297 -44.91625 38016 ft 451 kts 225°
2026-05-04 12:43 39.02619 -44.97003 38015 ft 451 kts 225°
2026-05-04 12:44 38.97868 -45.02284 38015 ft 452 kts 223°
2026-05-04 12:44 38.93066 -45.07494 38123 ft 453 kts 224°
2026-05-04 12:44 38.90670 -45.10119 38245 ft 452 kts 223°
2026-05-04 12:45 38.88270 -45.12736 38348 ft 453 kts 224°
2026-05-04 12:45 38.85869 -45.15345 38486 ft 452 kts 224°
2026-05-04 12:45 38.83503 -45.17917 38612 ft 452 kts 224°
2026-05-04 12:45 38.81070 -45.20563 38750 ft 452 kts 224°
2026-05-04 12:46 38.78707 -45.23131 38894 ft 451 kts 224°
2026-05-04 12:46 38.73908 -45.28328 39103 ft 452 kts 224°
2026-05-04 12:47 38.69104 -45.33524 39298 ft 452 kts 224°
2026-05-04 12:47 38.64293 -45.38713 39475 ft 452 kts 224°
2026-05-04 12:48 38.59477 -45.43896 39653 ft 453 kts 224°
2026-05-04 12:48 38.54645 -45.49080 39816 ft 453 kts 224°
2026-05-04 12:49 38.49811 -45.54264 39964 ft 454 kts 224°
2026-05-04 12:49 38.45790 -45.58561 39983 ft 453 kts 224°
2026-05-04 12:50 38.40961 -45.63733 39975 ft 454 kts 224°
2026-05-04 12:50 38.36125 -45.68901 39983 ft 453 kts 224°
2026-05-04 12:51 38.31284 -45.74049 39983 ft 454 kts 223°
2026-05-04 12:51 38.26425 -45.79191 39979 ft 454 kts 224°
2026-05-04 12:52 38.21574 -45.84348 39972 ft 455 kts 224°
2026-05-04 12:52 38.16714 -45.89489 39962 ft 455 kts 224°
2026-05-04 12:53 38.11890 -45.94584 39961 ft 454 kts 224°
2026-05-04 12:53 38.07035 -45.99715 39967 ft 454 kts 224°
2026-05-04 12:54 38.02177 -46.04834 39983 ft 454 kts 223°
2026-05-04 12:54 37.97304 -46.09945 39986 ft 454 kts 224°
2026-05-04 12:55 37.92442 -46.15050 39963 ft 454 kts 224°
2026-05-04 12:55 37.87570 -46.20155 39961 ft 455 kts 224°
2026-05-04 12:56 37.82700 -46.25253 39960 ft 454 kts 224°
2026-05-04 12:56 37.77831 -46.30340 39976 ft 454 kts 224°
2026-05-04 12:57 37.72956 -46.35415 39983 ft 454 kts 224°
2026-05-04 12:57 37.68076 -46.40485 39989 ft 454 kts 224°
2026-05-04 12:58 37.63224 -46.45523 39982 ft 455 kts 224°
2026-05-04 12:58 37.58339 -46.50594 39964 ft 455 kts 224°
2026-05-04 12:59 37.53448 -46.55652 39967 ft 455 kts 223°
2026-05-04 12:59 37.48552 -46.60700 39965 ft 454 kts 223°
2026-05-04 13:00 37.43670 -46.65736 39966 ft 454 kts 224°
2026-05-04 13:00 37.38781 -46.70767 39964 ft 454 kts 223°
2026-05-04 13:01 37.33890 -46.75786 39977 ft 453 kts 224°
2026-05-04 13:01 37.29005 -46.80796 39979 ft 453 kts 224°
2026-05-04 13:02 37.24120 -46.85808 39963 ft 454 kts 223°
2026-05-04 13:02 37.19227 -46.90809 39964 ft 453 kts 224°
2026-05-04 13:03 37.14339 -46.95799 39963 ft 454 kts 223°
2026-05-04 13:03 37.09439 -47.00789 39981 ft 454 kts 223°
2026-05-04 13:04 37.04544 -47.05774 39983 ft 454 kts 223°
2026-05-04 13:04 36.99641 -47.10749 39987 ft 453 kts 223°
2026-05-04 13:05 36.94738 -47.15708 39983 ft 453 kts 223°
2026-05-04 13:05 36.89845 -47.20667 39963 ft 453 kts 223°
2026-05-04 13:06 36.84957 -47.25619 39956 ft 453 kts 223°
2026-05-04 13:06 36.80054 -47.30550 39977 ft 452 kts 224°
2026-05-04 13:07 36.75158 -47.35481 39987 ft 452 kts 223°
2026-05-04 13:07 36.70259 -47.40405 39984 ft 452 kts 223°
2026-05-04 13:08 36.65354 -47.45312 39965 ft 452 kts 223°
2026-05-04 13:08 36.60456 -47.50226 39958 ft 452 kts 223°
2026-05-04 13:09 36.55550 -47.55143 39960 ft 453 kts 223°
2026-05-04 13:09 36.50639 -47.60043 39987 ft 452 kts 223°
2026-05-04 13:10 36.45734 -47.64929 39977 ft 452 kts 223°
2026-05-04 13:10 36.40825 -47.69807 39983 ft 452 kts 223°
2026-05-04 13:11 36.35920 -47.74684 39976 ft 452 kts 223°
2026-05-04 13:11 36.31011 -47.79546 39961 ft 451 kts 223°
2026-05-04 13:12 36.26137 -47.84370 39959 ft 451 kts 223°
2026-05-04 13:12 36.21239 -47.89221 39963 ft 451 kts 223°
2026-05-04 13:13 36.16334 -47.94054 39978 ft 451 kts 223°
2026-05-04 13:13 36.11428 -47.98889 39980 ft 451 kts 223°
2026-05-04 13:14 36.06511 -48.03712 39985 ft 451 kts 223°
2026-05-04 13:14 36.01596 -48.08539 39979 ft 452 kts 223°
2026-05-04 13:15 35.96677 -48.13360 39980 ft 452 kts 223°
2026-05-04 13:15 35.91763 -48.18191 39985 ft 451 kts 223°
2026-05-04 13:16 35.86840 -48.22986 39978 ft 451 kts 223°
2026-05-04 13:16 35.81914 -48.27783 39981 ft 451 kts 223°
2026-05-04 13:17 35.76997 -48.32590 39979 ft 451 kts 223°
2026-05-04 13:17 35.72067 -48.37370 39981 ft 451 kts 223°
2026-05-04 13:18 35.67141 -48.42144 39977 ft 450 kts 223°
2026-05-04 13:18 35.62224 -48.46906 39983 ft 450 kts 223°
2026-05-04 13:19 35.57304 -48.51671 39982 ft 450 kts 222°
2026-05-04 13:19 35.52368 -48.56433 39979 ft 451 kts 222°
2026-05-04 13:20 35.47435 -48.61194 39983 ft 451 kts 223°
2026-05-04 13:20 35.42499 -48.65963 39983 ft 452 kts 223°
2026-05-04 13:21 35.37555 -48.70717 39986 ft 452 kts 222°
2026-05-04 13:21 35.32608 -48.75463 39984 ft 452 kts 222°
2026-05-04 13:22 35.27654 -48.80204 39984 ft 452 kts 222°
2026-05-04 13:22 35.22709 -48.84930 39981 ft 451 kts 222°
2026-05-04 13:23 35.17764 -48.89657 39984 ft 451 kts 222°
2026-05-04 13:23 35.12827 -48.94374 39983 ft 451 kts 222°
2026-05-04 13:24 35.07877 -48.99080 39981 ft 451 kts 221°
2026-05-04 13:24 35.02917 -49.03786 39978 ft 451 kts 222°
2026-05-04 13:25 34.95519 -49.10814 39989 ft 451 kts 222°
2026-05-04 13:25 34.90565 -49.15512 39988 ft 451 kts 222°
2026-05-04 13:26 34.85610 -49.20198 39989 ft 451 kts 221°
2026-05-04 13:26 34.80647 -49.24878 39992 ft 451 kts 221°
2026-05-04 13:27 34.75683 -49.29554 39993 ft 452 kts 221°
2026-05-04 13:27 34.70716 -49.34232 39989 ft 451 kts 221°
2026-05-04 13:28 34.65746 -49.38895 39987 ft 451 kts 221°
2026-05-04 13:28 34.60782 -49.43563 39992 ft 451 kts 221°
2026-05-04 13:29 34.55811 -49.48209 39985 ft 451 kts 221°
2026-05-04 13:29 34.50849 -49.52861 39986 ft 450 kts 222°
2026-05-04 13:30 34.45880 -49.57509 39987 ft 451 kts 221°
2026-05-04 13:30 34.40901 -49.62134 39990 ft 451 kts 221°
2026-05-04 13:31 34.35929 -49.66762 39988 ft 451 kts 221°
2026-05-04 13:31 34.30948 -49.71391 39992 ft 451 kts 221°
2026-05-04 13:32 34.25969 -49.76011 39998 ft 451 kts 221°
2026-05-04 13:32 34.21022 -49.80600 39999 ft 451 kts 221°
2026-05-04 13:33 34.16034 -49.85216 40002 ft 452 kts 221°
2026-05-04 13:33 34.11046 -49.89827 40000 ft 452 kts 221°
2026-05-04 13:34 34.06061 -49.94429 40002 ft 452 kts 221°
2026-05-04 13:34 34.01067 -49.99033 40002 ft 452 kts 221°
2026-05-04 13:35 33.93498 -50.05810 39998 ft 452 kts 221°
2026-05-04 13:36 33.88483 -50.10364 39999 ft 452 kts 220°
2026-05-04 13:36 33.83457 -50.14904 39999 ft 452 kts 220°
2026-05-04 13:37 33.78424 -50.19434 40000 ft 452 kts 220°
2026-05-04 13:37 33.73388 -50.23959 39999 ft 452 kts 220°
2026-05-04 13:38 33.69201 -50.27716 40003 ft 452 kts 220°
2026-05-04 13:38 33.64162 -50.32230 40008 ft 452 kts 220°
2026-05-04 13:39 33.59119 -50.36739 40017 ft 452 kts 220°
2026-05-04 13:39 33.54075 -50.41241 40033 ft 452 kts 220°
2026-05-04 13:40 33.49032 -50.45735 40036 ft 452 kts 220°
2026-05-04 13:40 33.43984 -50.50228 40037 ft 452 kts 220°
2026-05-04 13:41 33.38934 -50.54716 40034 ft 452 kts 220°
2026-05-04 13:41 33.33880 -50.59200 40036 ft 453 kts 220°
2026-05-04 13:42 33.26287 -50.65926 40032 ft 453 kts 220°
2026-05-04 13:42 33.21218 -50.70407 40035 ft 453 kts 220°
2026-05-04 13:43 33.16148 -50.74882 40035 ft 453 kts 220°
2026-05-04 13:43 33.11077 -50.79352 40045 ft 453 kts 220°
2026-05-04 13:44 33.06003 -50.83818 40056 ft 453 kts 220°
2026-05-04 13:44 33.00963 -50.88248 40068 ft 453 kts 220°
2026-05-04 13:45 32.95885 -50.92704 40089 ft 453 kts 220°
2026-05-04 13:45 32.90808 -50.97153 40109 ft 453 kts 219°
2026-05-04 13:46 32.85724 -51.01602 40125 ft 453 kts 219°
2026-05-04 13:46 32.80646 -51.06039 40143 ft 453 kts 219°
2026-05-04 13:47 32.75561 -51.10475 40160 ft 453 kts 219°
2026-05-04 13:47 32.70477 -51.14905 40177 ft 453 kts 219°
2026-05-04 13:48 32.65389 -51.19331 40182 ft 454 kts 219°
2026-05-04 13:48 32.60291 -51.23760 40192 ft 454 kts 219°
2026-05-04 13:49 32.55193 -51.28182 40179 ft 454 kts 219°
2026-05-04 13:49 32.50090 -51.32602 40180 ft 455 kts 219°
2026-05-04 13:50 32.44983 -51.37020 40182 ft 455 kts 219°
2026-05-04 13:50 32.39870 -51.41436 40176 ft 455 kts 219°
2026-05-04 13:51 32.34753 -51.45850 40176 ft 455 kts 219°
2026-05-04 13:51 32.29634 -51.50259 40175 ft 455 kts 219°
2026-05-04 13:52 32.21950 -51.56865 40176 ft 455 kts 219°
2026-05-04 13:53 32.16821 -51.61266 40175 ft 456 kts 219°
2026-05-04 13:53 32.11695 -51.65659 40175 ft 456 kts 219°
2026-05-04 13:54 32.03997 -51.72245 40175 ft 456 kts 219°
2026-05-04 13:55 31.96328 -51.78791 40175 ft 456 kts 219°
2026-05-04 13:55 31.88620 -51.85357 40175 ft 456 kts 219°
2026-05-04 13:56 31.83478 -51.89730 40175 ft 456 kts 219°
2026-05-04 13:57 31.75759 -51.96282 40175 ft 456 kts 219°
2026-05-04 13:58 31.65466 -52.04998 40178 ft 456 kts 219°
2026-05-04 13:58 31.57746 -52.11519 40174 ft 456 kts 219°
2026-05-04 13:59 31.52596 -52.15861 40174 ft 456 kts 219°
2026-05-04 14:00 31.44867 -52.22368 40172 ft 456 kts 219°
2026-05-04 14:00 31.37168 -52.28835 40173 ft 456 kts 219°
2026-05-04 14:01 31.32011 -52.33159 40174 ft 456 kts 218°
2026-05-04 14:02 31.24262 -52.39647 40165 ft 457 kts 218°
2026-05-04 14:02 31.19088 -52.43971 40164 ft 457 kts 218°
2026-05-04 14:03 31.13915 -52.48288 40164 ft 457 kts 218°
2026-05-04 14:03 31.08738 -52.52603 40165 ft 457 kts 218°
2026-05-04 14:04 31.00969 -52.59067 40165 ft 457 kts 218°
2026-05-04 14:04 30.95785 -52.63372 40163 ft 458 kts 218°
2026-05-04 14:05 30.88005 -52.69824 40165 ft 458 kts 218°
2026-05-04 14:06 30.82816 -52.74119 40164 ft 458 kts 218°
2026-05-04 14:06 30.77618 -52.78416 40148 ft 458 kts 218°
2026-05-04 14:07 30.72415 -52.82712 40131 ft 459 kts 218°
2026-05-04 14:07 30.67209 -52.87003 40113 ft 459 kts 218°
2026-05-04 14:08 30.61995 -52.91296 40097 ft 459 kts 218°
2026-05-04 14:08 30.56812 -52.95558 40079 ft 460 kts 218°
2026-05-04 14:09 30.48986 -53.01981 40052 ft 460 kts 218°
2026-05-04 14:10 30.41153 -53.08398 40030 ft 460 kts 218°
2026-05-04 14:10 30.35930 -53.12670 40019 ft 459 kts 218°
2026-05-04 14:11 30.30708 -53.16935 40022 ft 459 kts 218°
2026-05-04 14:11 30.22877 -53.23319 40022 ft 459 kts 218°
2026-05-04 14:12 30.17654 -53.27572 40023 ft 459 kts 218°
2026-05-04 14:13 30.09814 -53.33943 40022 ft 460 kts 218°
2026-05-04 14:13 30.04583 -53.38187 40022 ft 460 kts 218°
2026-05-04 14:14 29.99346 -53.42430 40023 ft 460 kts 218°
2026-05-04 14:14 29.91479 -53.48795 40019 ft 461 kts 218°
2026-05-04 14:15 29.80959 -53.57285 40030 ft 462 kts 218°
2026-05-04 14:16 29.73062 -53.63644 40035 ft 462 kts 218°
2026-05-04 14:17 29.65157 -53.69997 40035 ft 462 kts 218°
2026-05-04 14:18 29.57246 -53.76342 40033 ft 462 kts 218°
2026-05-04 14:19 29.46690 -53.84790 40031 ft 463 kts 218°
2026-05-04 14:19 29.41440 -53.88983 40034 ft 463 kts 218°
2026-05-04 14:20 29.36154 -53.93200 40035 ft 463 kts 218°
2026-05-04 14:20 29.30861 -53.97417 40035 ft 463 kts 218°
2026-05-04 14:21 29.22921 -54.03732 40042 ft 463 kts 218°
2026-05-04 14:21 29.17627 -54.07936 40053 ft 463 kts 217°
2026-05-04 14:22 29.12334 -54.12134 40050 ft 463 kts 217°
2026-05-04 14:22 29.07033 -54.16333 40044 ft 463 kts 217°
2026-05-04 14:23 28.99079 -54.22623 40041 ft 464 kts 217°
2026-05-04 14:24 28.93774 -54.26812 40043 ft 464 kts 217°
2026-05-04 14:24 28.88465 -54.30998 40041 ft 464 kts 217°
2026-05-04 14:25 28.83149 -54.35185 40046 ft 464 kts 217°
2026-05-04 14:25 28.76068 -54.40753 40048 ft 464 kts 217°
2026-05-04 14:26 28.70746 -54.44932 40046 ft 465 kts 217°
2026-05-04 14:26 28.65420 -54.49110 40045 ft 465 kts 217°
2026-05-04 14:27 28.60092 -54.53283 40050 ft 465 kts 217°
2026-05-04 14:27 28.54758 -54.57455 40046 ft 465 kts 217°
2026-05-04 14:28 28.49428 -54.61619 40054 ft 465 kts 217°
2026-05-04 14:28 28.44095 -54.65782 40052 ft 465 kts 217°
2026-05-04 14:29 28.33424 -54.74093 40061 ft 465 kts 217°
2026-05-04 14:30 28.28086 -54.78243 40051 ft 465 kts 217°
2026-05-04 14:31 28.20080 -54.84460 40057 ft 465 kts 217°
2026-05-04 14:32 28.09442 -54.92707 40053 ft 465 kts 217°
2026-05-04 14:32 28.04105 -54.96836 40053 ft 464 kts 217°
2026-05-04 14:33 27.98769 -55.00957 40065 ft 464 kts 217°
2026-05-04 14:33 27.93410 -55.05048 40045 ft 465 kts 216°
2026-05-04 14:34 27.88041 -55.09147 40048 ft 465 kts 216°
2026-05-04 14:34 27.82675 -55.13253 40049 ft 466 kts 216°
2026-05-04 14:35 27.77309 -55.17354 40058 ft 466 kts 216°
2026-05-04 14:35 27.71942 -55.21453 40062 ft 466 kts 216°
2026-05-04 14:36 27.66573 -55.25548 40057 ft 466 kts 216°
2026-05-04 14:36 27.61206 -55.29634 40058 ft 466 kts 216°
2026-05-04 14:37 27.55836 -55.33717 40059 ft 465 kts 216°
2026-05-04 14:37 27.50468 -55.37792 40063 ft 465 kts 216°
2026-05-04 14:38 27.45097 -55.41866 40076 ft 465 kts 216°
2026-05-04 14:38 27.39727 -55.45934 40064 ft 465 kts 216°
2026-05-04 14:39 27.34355 -55.49998 40060 ft 465 kts 216°
2026-05-04 14:39 27.28981 -55.54060 40061 ft 465 kts 216°
2026-05-04 14:40 27.20915 -55.60147 40060 ft 466 kts 216°
2026-05-04 14:40 27.15532 -55.64202 40060 ft 466 kts 216°
2026-05-04 14:41 27.10150 -55.68253 40068 ft 466 kts 216°
2026-05-04 14:42 26.99372 -55.76350 40057 ft 466 kts 216°
2026-05-04 14:42 26.93978 -55.80395 40065 ft 467 kts 216°
2026-05-04 14:43 26.88578 -55.84440 40069 ft 467 kts 216°
2026-05-04 14:43 26.83215 -55.88453 40065 ft 467 kts 216°
2026-05-04 14:44 26.77807 -55.92494 40068 ft 467 kts 216°
2026-05-04 14:44 26.72399 -55.96531 40059 ft 467 kts 216°
2026-05-04 14:45 26.66987 -56.00566 40066 ft 468 kts 216°
2026-05-04 14:45 26.61580 -56.04593 40076 ft 467 kts 216°
2026-05-04 14:46 26.56167 -56.08619 40064 ft 467 kts 216°
2026-05-04 14:46 26.50758 -56.12639 40054 ft 467 kts 216°
2026-05-04 14:47 26.45348 -56.16654 40060 ft 467 kts 216°
2026-05-04 14:47 26.39935 -56.20666 40061 ft 467 kts 216°
2026-05-04 14:48 26.34516 -56.24678 40045 ft 468 kts 216°
2026-05-04 14:48 26.29096 -56.28687 40050 ft 468 kts 216°
2026-05-04 14:49 26.23674 -56.32693 40042 ft 468 kts 216°
2026-05-04 14:49 26.18250 -56.36695 40051 ft 468 kts 216°
2026-05-04 14:50 26.12824 -56.40694 40050 ft 468 kts 216°
2026-05-04 14:50 26.07401 -56.44688 40042 ft 468 kts 216°
2026-05-04 14:51 26.01975 -56.48678 40044 ft 467 kts 216°
2026-05-04 14:51 25.96548 -56.52665 40036 ft 468 kts 216°
2026-05-04 14:52 25.91120 -56.56648 40054 ft 468 kts 216°
2026-05-04 14:52 25.85688 -56.60629 40050 ft 468 kts 215°
2026-05-04 14:53 25.80251 -56.64610 40047 ft 468 kts 215°
2026-05-04 14:53 25.74810 -56.68589 40064 ft 468 kts 215°
2026-05-04 14:54 25.69403 -56.72538 40055 ft 468 kts 215°
2026-05-04 14:54 25.63961 -56.76509 40054 ft 468 kts 215°
2026-05-04 14:55 25.58512 -56.80481 40059 ft 469 kts 215°
2026-05-04 14:55 25.53063 -56.84448 40052 ft 469 kts 215°
2026-05-04 14:56 25.47613 -56.88412 40050 ft 469 kts 215°
2026-05-04 14:56 25.42160 -56.92373 40064 ft 469 kts 215°
2026-05-04 14:57 25.36707 -56.96331 40056 ft 469 kts 215°
2026-05-04 14:57 25.31250 -57.00286 40051 ft 469 kts 215°
2026-05-04 14:58 25.25794 -57.04237 40056 ft 469 kts 215°
2026-05-04 14:58 25.20334 -57.08186 40047 ft 469 kts 215°
2026-05-04 14:59 25.14876 -57.12130 40062 ft 469 kts 215°
2026-05-04 15:00 25.06687 -57.18038 40049 ft 469 kts 215°
2026-05-04 15:00 25.01257 -57.21950 40057 ft 469 kts 215°
2026-05-04 15:01 24.93061 -57.27848 40052 ft 469 kts 215°
2026-05-04 15:01 24.87591 -57.31779 40057 ft 469 kts 215°
2026-05-04 15:02 24.82118 -57.35708 40059 ft 469 kts 215°
2026-05-04 15:02 24.76646 -57.39632 40053 ft 469 kts 215°
2026-05-04 15:03 24.71172 -57.43553 40059 ft 470 kts 215°
2026-05-04 15:03 24.65691 -57.47475 40057 ft 470 kts 215°
2026-05-04 15:04 24.60210 -57.51392 40058 ft 470 kts 214°
2026-05-04 15:04 24.54726 -57.55309 40057 ft 470 kts 214°
2026-05-04 15:05 24.49237 -57.59223 40066 ft 470 kts 214°
2026-05-04 15:05 24.43744 -57.63137 40063 ft 471 kts 214°
2026-05-04 15:06 24.38287 -57.67022 40072 ft 471 kts 214°
2026-05-04 15:07 24.30044 -57.72881 40068 ft 471 kts 214°
2026-05-04 15:07 24.24548 -57.76783 40071 ft 471 kts 214°
2026-05-04 15:08 24.19042 -57.80687 40067 ft 471 kts 214°
2026-05-04 15:08 24.13563 -57.84584 40075 ft 469 kts 214°
2026-05-04 15:09 24.08096 -57.88478 40053 ft 469 kts 214°
2026-05-04 15:09 24.02601 -57.92334 40054 ft 469 kts 214°
2026-05-04 15:10 23.94363 -57.98139 40057 ft 470 kts 214°
2026-05-04 15:11 23.86122 -58.03949 40075 ft 470 kts 214°
2026-05-04 15:11 23.80625 -58.07819 40059 ft 470 kts 214°
2026-05-04 15:12 23.75166 -58.11659 40080 ft 470 kts 214°
2026-05-04 15:12 23.69669 -58.15522 40065 ft 470 kts 214°
2026-05-04 15:13 23.64166 -58.19384 40058 ft 470 kts 214°
2026-05-04 15:13 23.58668 -58.23239 40079 ft 470 kts 214°
2026-05-04 15:14 23.53168 -58.27092 40084 ft 470 kts 214°
2026-05-04 15:14 23.47665 -58.30943 40081 ft 470 kts 214°
2026-05-04 15:15 23.43094 -58.34139 40084 ft 470 kts 214°
2026-05-04 15:15 23.37586 -58.37986 40080 ft 470 kts 214°
2026-05-04 15:16 23.29329 -58.43746 40054 ft 470 kts 214°
2026-05-04 15:17 23.21068 -58.49501 40077 ft 470 kts 214°
2026-05-04 15:17 23.12803 -58.55250 40084 ft 470 kts 214°
2026-05-04 15:18 23.07293 -58.59078 40077 ft 470 kts 214°
2026-05-04 15:19 22.99023 -58.64816 40055 ft 470 kts 214°
2026-05-04 15:19 22.90751 -58.70547 40080 ft 470 kts 214°
2026-05-04 15:20 22.85233 -58.74365 40084 ft 470 kts 214°
2026-05-04 15:20 22.79753 -58.78153 40079 ft 470 kts 214°
2026-05-04 15:21 22.74234 -58.81965 40075 ft 470 kts 214°
2026-05-04 15:22 22.65957 -58.87674 40083 ft 470 kts 214°
2026-05-04 15:22 22.57675 -58.93379 40083 ft 470 kts 214°
2026-05-04 15:23 22.52149 -58.97181 40081 ft 470 kts 214°
2026-05-04 15:23 22.46627 -59.00976 40083 ft 470 kts 214°
2026-05-04 15:24 22.35574 -59.08562 40082 ft 470 kts 214°
2026-05-04 15:25 22.30048 -59.12348 40082 ft 470 kts 214°
2026-05-04 15:26 22.21757 -59.18024 40081 ft 470 kts 213°
2026-05-04 15:26 22.13464 -59.23693 40083 ft 470 kts 213°
2026-05-04 15:27 22.05169 -59.29355 40082 ft 470 kts 213°
2026-05-04 15:28 21.96874 -59.35009 40078 ft 471 kts 213°
2026-05-04 15:29 21.88572 -59.40661 40080 ft 471 kts 213°
2026-05-04 15:30 21.69154 -59.53783 40081 ft 471 kts 210°
2026-05-04 15:31 21.60147 -59.57913 40080 ft 473 kts 198°
2026-05-04 15:32 21.44145 -59.62189 40081 ft 474 kts 195°
2026-05-04 15:34 21.28132 -59.66429 40090 ft 474 kts 195°
2026-05-04 15:34 21.18514 -59.68968 40091 ft 474 kts 195°
2026-05-04 15:35 21.08896 -59.71505 40091 ft 475 kts 195°
2026-05-04 15:36 20.99274 -59.74039 40091 ft 475 kts 195°
2026-05-04 15:36 20.92858 -59.75727 40091 ft 475 kts 195°
2026-05-04 15:37 20.86438 -59.77415 40092 ft 475 kts 195°
2026-05-04 15:37 20.80019 -59.79101 40089 ft 475 kts 195°
2026-05-04 15:38 20.73643 -59.80774 40083 ft 475 kts 195°
2026-05-04 15:38 20.67224 -59.82456 40082 ft 475 kts 195°
2026-05-04 15:39 20.60801 -59.84139 40082 ft 475 kts 195°
2026-05-04 15:40 20.51170 -59.86659 40083 ft 475 kts 194°
2026-05-04 15:40 20.44750 -59.88337 40084 ft 475 kts 194°
2026-05-04 15:41 20.38330 -59.90014 40082 ft 475 kts 194°
2026-05-04 15:41 20.31914 -59.91689 40083 ft 475 kts 194°
2026-05-04 15:42 20.25499 -59.93361 40082 ft 475 kts 194°
2026-05-04 15:42 20.19080 -59.95033 40082 ft 475 kts 194°
2026-05-04 15:43 20.12667 -59.96703 40083 ft 475 kts 194°
2026-05-04 15:43 20.06250 -59.98372 40083 ft 475 kts 194°
2026-05-04 15:44 19.99937 -60.00235 40080 ft 474 kts 201°
2026-05-04 15:44 19.93917 -60.03054 40078 ft 473 kts 207°
2026-05-04 15:45 19.87990 -60.06080 40081 ft 473 kts 206°
2026-05-04 15:45 19.82052 -60.09085 40081 ft 473 kts 206°
2026-05-04 15:46 19.76110 -60.12086 40081 ft 473 kts 206°
2026-05-04 15:46 19.70163 -60.15088 40082 ft 473 kts 206°
2026-05-04 15:47 19.64223 -60.18085 40082 ft 473 kts 206°
2026-05-04 15:47 19.58274 -60.21084 40090 ft 473 kts 206°
2026-05-04 15:48 19.52331 -60.24077 40091 ft 473 kts 206°
2026-05-04 15:48 19.43405 -60.28569 40091 ft 473 kts 206°
2026-05-04 15:49 19.37455 -60.31560 40089 ft 474 kts 206°
2026-05-04 15:49 19.31501 -60.34550 40090 ft 474 kts 206°
2026-05-04 15:50 19.25545 -60.37539 40091 ft 474 kts 206°
2026-05-04 15:50 19.19586 -60.40527 40091 ft 474 kts 206°
2026-05-04 15:51 19.13628 -60.43513 40090 ft 474 kts 206°
2026-05-04 15:51 19.07666 -60.46497 40090 ft 474 kts 206°
2026-05-04 15:52 19.01701 -60.49481 40091 ft 474 kts 206°
2026-05-04 15:52 18.95734 -60.52464 40091 ft 475 kts 206°
2026-05-04 15:53 18.89762 -60.55446 40091 ft 475 kts 206°
2026-05-04 15:53 18.83789 -60.58427 40092 ft 475 kts 206°
2026-05-04 15:54 18.77816 -60.61406 40092 ft 475 kts 206°
2026-05-04 15:54 18.71838 -60.64384 40091 ft 475 kts 206°
2026-05-04 15:55 18.65864 -60.67358 40100 ft 475 kts 206°
2026-05-04 15:55 18.59924 -60.70313 40102 ft 475 kts 206°
2026-05-04 15:56 18.53945 -60.73286 40102 ft 475 kts 206°
2026-05-04 15:56 18.47965 -60.76256 40102 ft 475 kts 206°
2026-05-04 15:57 18.41983 -60.79225 39789 ft 474 kts 206°
2026-05-04 15:57 18.39005 -60.80702 39539 ft 473 kts 206°
2026-05-04 15:57 18.36026 -60.82179 39295 ft 473 kts 206°
2026-05-04 15:58 18.33043 -60.83657 39044 ft 474 kts 206°
2026-05-04 15:58 18.30059 -60.85139 38796 ft 474 kts 206°
2026-05-04 15:58 18.27071 -60.86618 38546 ft 475 kts 206°
2026-05-04 15:58 18.24084 -60.88095 38223 ft 475 kts 206°
2026-05-04 15:59 18.21087 -60.89580 37533 ft 476 kts 206°
2026-05-04 15:59 18.18079 -60.91068 36596 ft 479 kts 206°
2026-05-04 15:59 18.15051 -60.92564 35418 ft 483 kts 206°
2026-05-04 15:59 18.11995 -60.94073 34031 ft 488 kts 206°
2026-05-04 16:00 18.08909 -60.95597 32593 ft 492 kts 205°
2026-05-04 16:00 18.05805 -60.97111 31397 ft 490 kts 205°
2026-05-04 16:00 18.02739 -60.98643 30511 ft 485 kts 207°
2026-05-04 16:00 17.99875 -61.00447 29928 ft 476 kts 214°
2026-05-04 16:01 17.97333 -61.02555 29360 ft 470 kts 224°
2026-05-04 16:01 17.95194 -61.05133 28665 ft 466 kts 235°
2026-05-04 16:01 17.93603 -61.08071 27871 ft 461 kts 244°
2026-05-04 16:01 17.92229 -61.11104 27086 ft 458 kts 245°
2026-05-04 16:02 17.90865 -61.14117 26358 ft 455 kts 245°
2026-05-04 16:02 17.89516 -61.17098 25632 ft 451 kts 245°
2026-05-04 16:02 17.86868 -61.23002 24336 ft 441 kts 245°
2026-05-04 16:03 17.85572 -61.25897 24147 ft 439 kts 245°
2026-05-04 16:03 17.84262 -61.28830 24102 ft 447 kts 245°
2026-05-04 16:03 17.82944 -61.31787 24099 ft 446 kts 245°
2026-05-04 16:03 17.81629 -61.34736 24105 ft 446 kts 245°
2026-05-04 16:04 17.80317 -61.37683 24101 ft 446 kts 245°
2026-05-04 16:04 17.77710 -61.43540 23503 ft 441 kts 245°
2026-05-04 16:04 17.76422 -61.46434 22989 ft 436 kts 245°
2026-05-04 16:05 17.75572 -61.48339 22623 ft 431 kts 245°
2026-05-04 16:05 17.74310 -61.51168 21926 ft 426 kts 245°
2026-05-04 16:05 17.71298 -61.56411 20504 ft 414 kts 234°
2026-05-04 16:06 17.69649 -61.58868 19777 ft 410 kts 235°
2026-05-04 16:06 17.64588 -61.65858 17640 ft 392 kts 226°
2026-05-04 16:07 17.62659 -61.67849 16900 ft 386 kts 225°
2026-05-04 16:07 17.56997 -61.73699 14491 ft 375 kts 225°
2026-05-04 16:08 17.55089 -61.75541 13657 ft 372 kts 217°
2026-05-04 16:08 17.48506 -61.79605 11335 ft 360 kts 210°
2026-05-04 16:09 17.44217 -61.82176 10140 ft 343 kts 210°
2026-05-04 16:09 17.40331 -61.84549 9720 ft 303 kts 210°
2026-05-04 16:10 17.36807 -61.86791 8667 ft 291 kts 210°
2026-05-04 16:11 17.31702 -61.90091 6770 ft 283 kts 210°
2026-05-04 16:11 17.30055 -61.91153 6160 ft 280 kts 210°
2026-05-04 16:12 17.24893 -61.93784 5118 ft 275 kts 200°
2026-05-04 16:12 17.19551 -61.96009 5097 ft 276 kts 200°
2026-05-04 16:13 17.15989 -61.97492 5101 ft 276 kts 200°
2026-05-04 16:13 17.12426 -61.98984 5027 ft 275 kts 200°
2026-05-04 16:14 17.08995 -62.00415 4342 ft 256 kts 200°
2026-05-04 16:14 17.05829 -62.01749 3601 ft 236 kts 200°
2026-05-04 16:15 17.01517 -62.03448 2902 ft 211 kts 182°
2026-05-04 16:16 16.99072 -62.02152 2670 ft 204 kts 118°
2026-05-04 16:16 16.99911 -61.98059 2500 ft 208 kts 46°
2026-05-04 16:17 17.01862 -61.95838 2456 ft 204 kts 49°
2026-05-04 16:18 17.04592 -61.92702 2086 ft 186 kts 48°
2026-05-04 16:18 17.05448 -61.91727 2006 ft 179 kts 48°
2026-05-04 16:19 17.07860 -61.89084 1996 ft 166 kts 49°
2026-05-04 16:19 17.09036 -61.87202 1918 ft 145 kts 60°
2026-05-04 16:20 17.10569 -61.84526 1124 ft 142 kts 58°
2026-05-04 16:20 17.11622 -61.82788 751 ft 142 kts 61°
2026-05-04 16:21 17.13157 -61.80155 125 ft 141 kts 60°
2026-05-04 16:22 17.14023 -61.78674 69 ft 71 kts 58°
2026-05-04 16:22 17.14317 -61.78220 71 ft 9 kts 23°
2026-05-04 16:23 17.14280 -61.78228 78 ft 9 kts 239°
2026-05-04 16:24 17.14103 -61.78745 69 ft 20 kts 275°
2026-05-04 16:25 17.14046 -61.78961 66 ft 17 kts 238°
2026-05-04 16:26 17.14062 -61.79094 69 ft 1 kts 328°
2026-05-04 16:26 17.14063 -61.79095 66 ft 0 kts 328°